sat.trackr.live / text

‹ back to catalog

MR-2

NORAD 67556 · 2026-015A

PAYLOAD ACTIVE UNKNOWN

§ Identity

Operator
Country
SPN
Launch date
2026-01-22
Launch site
RLLB
Launch vehicle
Mass (kg)
RCS (m²)

External: N2YO · Heavens-Above · Gunter

§ Orbital elements

Epoch: 2026-09-20T16:46:40.486944Z

Period
106.45 min
Inclination
88.9946°
Eccentricity
0.0004322
Mean motion
13.52700802 rev/d
Perigee alt
1,059.1 km
Apogee alt
1,065.6 km
Semi-major
7,440.5 km
B*
5.7980e-5
RAAN
258.8430°
Arg perigee
136.1788°
Mean anomaly
223.9708°
Rev number
3,262

§ Raw data

MR-21 67556U 26015A   26263.69907971  .00000051  00000+0  57980-4 0  99982 67556  88.9946 258.8430 0004322 136.1788 223.9708 13.52700802 32622

JSON: /api/v1/satellites/67556 · /tle

For live sub-satellite position, see the globe view (requires WebGL).

§ Visibility from observer

Set your observer location to see the next 7 days of passes ≥ 10°. The values pass through the URL so the page stays shareable.

No JS? Fill the form by hand. The geolocation button needs JavaScript.

§ Radio — SatNOGS DB

ModeDescriptionDownlinkUplink
FM S-band telemetry 2.249 GHz

1 transmitter · refreshed weekly from db.satnogs.org